HAWK-3A (48957 NORAD) Tracking and Keplerian Element Data

This shows tracking and keplerian element data for the satellite.

Feedback or suggestion? Click here.




ElementValue
Catalog48957
NameHAWK-3A
Epoch Orbit515
Epoch Day210.87150414
Epoch Year2021
RAAN339.2697
Inclination97.5138
Eccentricity0.0018711
Argument of Perigee133.3476
Mean Anonmoly226.9318
Mean Motion15.13831751
Decay Rate1.117E-05
L11 48957U 21059CG 21210.87150414 .00001117 00000-0 65229-4 0 9994
L22 48957 97.5138 339.2697 0018711 133.3476 226.9318 15.13831751 5159

Live tracking and technical data element details for HAWK-3A (NORAD 48957). HAWK-3A can be tracked NOW for your location showing map with azimuth and elevation plus other details from your city location.

Track the satellite on the map from your city or location and see movement details for azimuth, elevation, latitude, longitude, range, height, and movement on the map or in text.







IsCatalogInMostPopularTable: catalog: 48957, numindb: 1
Update: records affected: 1



GetName: 48957 HAWK-3A

Hit Count: updated at: Sat, 31 Jul 2021 16:09:22 GMT